Location: ?ejkovice
(49.0137°N, 14.3821°E)
Time: 22:10:05
(UTC+00:00)

Cosmos 968 Rocket - Pass Details

Date: 11 August 2024
Orbit: 738 x 767 km, 74.0° (Epoch: 07 September)

Event Time Altitude Azimuth Distance (km) Brightness Sun altitude
Rises 20:59:42 0° 324° (NW) 3,222 8.4 -20.1°
Reaches altitude 10° 21:02:40 10° 308° (NW) 2,285 7.0 -20.3°
Maximum altitude 21:06:14 19° 264° (W) 1,728 5.6 -20.7°
Drops below altitude 10° 21:09:47 10° 220° (SW) 2,260 5.7 -21.0°
Enters shadow 21:09:53 10° 219° (SW) 2,286 5.8 -21.0°
